Time,TemperatureF,DewpointF,PressureIn,WindDirection,WindDirectionDegrees,WindSpeedMPH,WindSpeedGustMPH,Humidity,HourlyPrecipIn,Conditions,Clouds,dailyrainin,SolarRadiationWatts/m^2,SoftwareType,DateUTC
2013-02-14 00:02:00,36.0,29.0,-100.00,North,-999,-999.0,-999.0,76,0.00,,,0.22,0.000000,,2013-02-14 05:02:00,
2013-02-14 00:10:00,34.0,28.0,-100.00,North,-999,-999.0,-999.0,78,0.00,,,0.21,0.000000,,2013-02-14 05:10:00,
2013-02-14 00:32:00,34.0,28.0,-100.00,North,-999,-999.0,-999.0,78,0.00,,,0.21,0.000000,,2013-02-14 05:32:00,
2013-02-14 00:42:00,34.0,28.0,-100.00,North,-999,-999.0,-999.0,78,0.00,,,0.21,0.000000,,2013-02-14 05:42:00,
2013-02-14 00:52:00,34.0,28.0,-100.00,North,-999,-999.0,-999.0,78,0.00,,,0.21,0.000000,,2013-02-14 05:52:00,
2013-02-14 01:02:00,34.0,28.0,-100.00,North,-999,-999.0,-999.0,78,0.00,,,0.21,0.000000,,2013-02-14 06:02:00,
2013-02-14 01:10:00,33.0,27.0,-100.00,North,-999,-999.0,-999.0,79,0.00,,,0.21,0.000000,,2013-02-14 06:10:00,
2013-02-14 01:42:00,33.0,27.0,-100.00,North,-999,-999.0,-999.0,79,0.00,,,0.21,0.000000,,2013-02-14 06:42:00,
2013-02-14 01:52:00,33.0,27.0,-100.00,North,-999,-999.0,-999.0,79,0.00,,,0.21,0.000000,,2013-02-14 06:52:00,
2013-02-14 02:01:00,33.0,27.0,-100.00,North,-999,-999.0,-999.0,79,0.00,,,0.21,0.000000,,2013-02-14 07:01:00,
2013-02-14 02:10:00,34.0,26.0,-100.00,North,-999,-999.0,-999.0,73,0.00,,,0.21,0.000000,,2013-02-14 07:10:00,
2013-02-14 02:42:00,34.0,26.0,-100.00,North,-999,-999.0,-999.0,73,0.00,,,0.21,0.000000,,2013-02-14 07:42:00,
2013-02-14 02:52:00,34.0,26.0,-100.00,North,-999,-999.0,-999.0,73,0.00,,,0.21,0.000000,,2013-02-14 07:52:00,
2013-02-14 03:01:00,34.0,26.0,-100.00,North,-999,-999.0,-999.0,73,0.00,,,0.21,0.000000,,2013-02-14 08:01:00,
2013-02-14 03:10:00,32.0,23.0,-100.00,North,-999,-999.0,-999.0,70,0.00,,,0.21,0.000000,,2013-02-14 08:10:00,
2013-02-14 03:32:00,32.0,23.0,-100.00,North,-999,-999.0,-999.0,70,0.00,,,0.21,0.000000,,2013-02-14 08:32:00,
2013-02-14 03:43:00,32.0,23.0,-100.00,North,-999,-999.0,-999.0,70,0.00,,,0.21,0.000000,,2013-02-14 08:43:00,
2013-02-14 03:52:00,32.0,23.0,-100.00,North,-999,-999.0,-999.0,70,0.00,,,0.21,0.000000,,2013-02-14 08:52:00,
2013-02-14 04:02:00,32.0,23.0,-100.00,North,-999,-999.0,-999.0,70,0.00,,,0.21,0.000000,,2013-02-14 09:02:00,
2013-02-14 04:10:00,33.0,25.0,-100.00,North,-999,-999.0,-999.0,73,0.00,,,0.15,0.000000,,2013-02-14 09:10:00,
2013-02-14 04:32:00,33.0,25.0,-100.00,North,-999,-999.0,-999.0,73,0.00,,,0.15,0.000000,,2013-02-14 09:32:00,
2013-02-14 04:42:00,33.0,25.0,-100.00,North,-999,-999.0,-999.0,73,0.00,,,0.15,0.000000,,2013-02-14 09:42:00,
2013-02-14 04:52:00,33.0,25.0,-100.00,North,-999,-999.0,-999.0,73,0.00,,,0.15,0.000000,,2013-02-14 09:52:00,
2013-02-14 05:02:00,33.0,25.0,-100.00,North,-999,-999.0,-999.0,73,0.00,,,0.15,0.000000,,2013-02-14 10:02:00,
2013-02-14 05:10:00,31.0,24.0,-100.00,North,-999,-999.0,-999.0,75,0.00,,,0.10,0.000000,,2013-02-14 10:10:00,
2013-02-14 05:32:00,31.0,24.0,-100.00,North,-999,-999.0,-999.0,75,0.00,,,0.10,0.000000,,2013-02-14 10:32:00,
2013-02-14 05:42:00,31.0,24.0,-100.00,North,-999,-999.0,-999.0,75,0.00,,,0.10,0.000000,,2013-02-14 10:42:00,
2013-02-14 05:52:00,31.0,24.0,-100.00,North,-999,-999.0,-999.0,75,0.00,,,0.10,0.000000,,2013-02-14 10:52:00,
2013-02-14 06:02:00,31.0,24.0,-100.00,North,-999,-999.0,-999.0,75,0.00,,,0.10,0.000000,,2013-02-14 11:02:00,
2013-02-14 06:10:00,32.0,25.0,-100.00,North,-999,-999.0,-999.0,76,0.00,,,0.09,0.000000,,2013-02-14 11:10:00,
2013-02-14 06:32:00,32.0,25.0,-100.00,North,-999,-999.0,-999.0,76,0.00,,,0.09,0.000000,,2013-02-14 11:32:00,
2013-02-14 06:42:00,32.0,25.0,-100.00,North,-999,-999.0,-999.0,76,0.00,,,0.09,0.000000,,2013-02-14 11:42:00,
2013-02-14 06:52:00,32.0,25.0,-100.00,North,-999,-999.0,-999.0,76,0.00,,,0.09,0.000000,,2013-02-14 11:52:00,
2013-02-14 07:02:00,32.0,25.0,-100.00,North,-999,-999.0,-999.0,76,0.00,,,0.09,0.000000,,2013-02-14 12:02:00,
2013-02-14 07:10:00,31.0,26.0,-100.00,North,-999,-999.0,-999.0,80,0.00,,,0.06,0.000000,,2013-02-14 12:10:00,
2013-02-14 07:32:00,31.0,26.0,-100.00,North,-999,-999.0,-999.0,80,0.00,,,0.06,0.000000,,2013-02-14 12:32:00,
2013-02-14 07:42:00,31.0,26.0,-100.00,North,-999,-999.0,-999.0,80,0.00,,,0.06,0.000000,,2013-02-14 12:42:00,
2013-02-14 07:53:00,31.0,26.0,-100.00,North,-999,-999.0,-999.0,80,0.00,,,0.06,0.000000,,2013-02-14 12:53:00,
2013-02-14 08:02:00,31.0,26.0,-100.00,North,-999,-999.0,-999.0,80,0.00,,,0.06,0.000000,,2013-02-14 13:02:00,
2013-02-14 09:10:00,37.0,22.0,-100.00,North,-999,-999.0,-999.0,55,-99.99,,,0.05,0.000000,,2013-02-14 14:10:00,
2013-02-14 09:42:00,37.0,22.0,-100.00,North,-999,-999.0,-999.0,55,-99.99,,,0.05,0.000000,,2013-02-14 14:42:00,
2013-02-14 09:52:00,37.0,22.0,-100.00,North,-999,-999.0,-999.0,55,-99.99,,,0.05,0.000000,,2013-02-14 14:52:00,
2013-02-14 10:02:00,37.0,22.0,-100.00,North,-999,-999.0,-999.0,55,-99.99,,,0.05,0.000000,,2013-02-14 15:02:00,
2013-02-14 10:10:00,42.0,28.0,-100.00,North,-999,-999.0,-999.0,58,0.00,,,0.05,0.000000,,2013-02-14 15:10:00,
2013-02-14 10:32:00,42.0,28.0,-100.00,North,-999,-999.0,-999.0,58,0.00,,,0.05,0.000000,,2013-02-14 15:32:00,
2013-02-14 11:02:00,42.0,28.0,-100.00,North,-999,-999.0,-999.0,58,0.00,,,0.05,0.000000,,2013-02-14 16:02:00,
2013-02-14 11:10:00,46.0,26.0,-100.00,North,-999,-999.0,-999.0,45,0.00,,,0.04,0.000000,,2013-02-14 16:10:00,
2013-02-14 11:42:00,46.0,26.0,-100.00,North,-999,-999.0,-999.0,45,0.00,,,0.04,0.000000,,2013-02-14 16:42:00,
2013-02-14 11:52:00,46.0,26.0,-100.00,North,-999,-999.0,-999.0,45,0.00,,,0.04,0.000000,,2013-02-14 16:52:00,
2013-02-14 12:01:00,46.0,26.0,-100.00,North,-999,-999.0,-999.0,45,0.00,,,0.04,0.000000,,2013-02-14 17:01:00,
2013-02-14 12:10:00,49.0,28.0,-100.00,North,-999,-999.0,-999.0,44,0.00,,,0.04,0.000000,,2013-02-14 17:10:00,
2013-02-14 12:32:00,49.0,28.0,-100.00,North,-999,-999.0,-999.0,44,0.00,,,0.04,0.000000,,2013-02-14 17:32:00,
2013-02-14 12:42:00,49.0,28.0,-100.00,North,-999,-999.0,-999.0,44,0.00,,,0.04,0.000000,,2013-02-14 17:42:00,
2013-02-14 12:52:00,49.0,28.0,-100.00,North,-999,-999.0,-999.0,44,0.00,,,0.04,0.000000,,2013-02-14 17:52:00,
2013-02-14 13:02:00,49.0,28.0,-100.00,North,-999,-999.0,-999.0,44,0.00,,,0.04,0.000000,,2013-02-14 18:02:00,
2013-02-14 13:10:00,51.0,27.0,-100.00,North,-999,-999.0,-999.0,39,0.00,,,0.04,0.000000,,2013-02-14 18:10:00,
2013-02-14 13:42:00,51.0,27.0,-100.00,North,-999,-999.0,-999.0,39,0.00,,,0.04,0.000000,,2013-02-14 18:42:00,
2013-02-14 13:52:00,51.0,27.0,-100.00,North,-999,-999.0,-999.0,39,0.00,,,0.04,0.000000,,2013-02-14 18:52:00,
2013-02-14 14:02:00,51.0,27.0,-100.00,North,-999,-999.0,-999.0,39,0.00,,,0.04,0.000000,,2013-02-14 19:02:00,
2013-02-14 14:10:00,51.0,26.0,-100.00,North,-999,-999.0,-999.0,38,0.00,,,0.04,0.000000,,2013-02-14 19:10:00,
2013-02-14 14:42:00,51.0,26.0,-100.00,North,-999,-999.0,-999.0,38,0.00,,,0.04,0.000000,,2013-02-14 19:42:00,
2013-02-14 14:52:00,51.0,26.0,-100.00,North,-999,-999.0,-999.0,38,0.00,,,0.04,0.000000,,2013-02-14 19:52:00,
2013-02-14 15:01:00,51.0,26.0,-100.00,North,-999,-999.0,-999.0,38,0.00,,,0.04,0.000000,,2013-02-14 20:01:00,
2013-02-14 15:10:00,53.0,27.0,-100.00,North,-999,-999.0,-999.0,36,0.00,,,0.03,0.000000,,2013-02-14 20:10:00,
2013-02-14 15:32:00,53.0,27.0,-100.00,North,-999,-999.0,-999.0,36,0.00,,,0.03,0.000000,,2013-02-14 20:32:00,
2013-02-14 15:42:00,53.0,27.0,-100.00,North,-999,-999.0,-999.0,36,0.00,,,0.03,0.000000,,2013-02-14 20:42:00,
2013-02-14 15:52:00,53.0,27.0,-100.00,North,-999,-999.0,-999.0,36,0.00,,,0.03,0.000000,,2013-02-14 20:52:00,
2013-02-14 16:02:00,53.0,27.0,-100.00,North,-999,-999.0,-999.0,36,0.00,,,0.03,0.000000,,2013-02-14 21:02:00,
2013-02-14 16:10:00,52.0,25.0,-100.00,North,-999,-999.0,-999.0,35,0.00,,,0.00,0.000000,,2013-02-14 21:10:00,
2013-02-14 16:42:00,52.0,25.0,-100.00,North,-999,-999.0,-999.0,35,0.00,,,0.00,0.000000,,2013-02-14 21:42:00,
2013-02-14 16:52:00,52.0,25.0,-100.00,North,-999,-999.0,-999.0,35,0.00,,,0.00,0.000000,,2013-02-14 21:52:00,
2013-02-14 17:02:00,52.0,25.0,-100.00,North,-999,-999.0,-999.0,35,0.00,,,0.00,0.000000,,2013-02-14 22:02:00,
2013-02-14 17:10:00,50.0,25.0,-100.00,North,-999,-999.0,-999.0,38,0.00,,,0.00,0.000000,,2013-02-14 22:10:00,
2013-02-14 17:32:00,50.0,25.0,-100.00,North,-999,-999.0,-999.0,38,0.00,,,0.00,0.000000,,2013-02-14 22:32:00,
2013-02-14 17:42:00,50.0,25.0,-100.00,North,-999,-999.0,-999.0,38,0.00,,,0.00,0.000000,,2013-02-14 22:42:00,
2013-02-14 17:52:00,50.0,25.0,-100.00,North,-999,-999.0,-999.0,38,0.00,,,0.00,0.000000,,2013-02-14 22:52:00,
2013-02-14 18:01:00,50.0,25.0,-100.00,North,-999,-999.0,-999.0,38,0.00,,,0.00,0.000000,,2013-02-14 23:01:00,
2013-02-14 18:10:00,46.0,28.0,-100.00,North,-999,-999.0,-999.0,50,0.00,,,0.00,0.000000,,2013-02-14 23:10:00,
2013-02-14 18:32:00,46.0,28.0,-100.00,North,-999,-999.0,-999.0,50,0.00,,,0.00,0.000000,,2013-02-14 23:32:00,
2013-02-14 18:42:00,46.0,28.0,-100.00,North,-999,-999.0,-999.0,50,0.00,,,0.00,0.000000,,2013-02-14 23:42:00,
2013-02-14 18:52:00,46.0,28.0,-100.00,North,-999,-999.0,-999.0,50,0.00,,,0.00,0.000000,,2013-02-14 23:52:00,
2013-02-14 19:02:00,46.0,28.0,-100.00,North,-999,-999.0,-999.0,50,0.00,,,0.00,0.000000,,2013-02-15 00:02:00,
2013-02-14 19:10:00,42.0,22.0,-100.00,North,-999,-999.0,-999.0,44,0.00,,,0.00,0.000000,,2013-02-15 00:10:00,
2013-02-14 19:32:00,42.0,22.0,-100.00,North,-999,-999.0,-999.0,44,0.00,,,0.00,0.000000,,2013-02-15 00:32:00,
2013-02-14 19:42:00,42.0,22.0,-100.00,North,-999,-999.0,-999.0,44,0.00,,,0.00,0.000000,,2013-02-15 00:42:00,
2013-02-14 19:52:00,42.0,22.0,-100.00,North,-999,-999.0,-999.0,44,0.00,,,0.00,0.000000,,2013-02-15 00:52:00,
2013-02-14 20:02:00,42.0,22.0,-100.00,North,-999,-999.0,-999.0,44,0.00,,,0.00,0.000000,,2013-02-15 01:02:00,
2013-02-14 21:10:00,42.0,27.0,-100.00,North,-999,-999.0,-999.0,54,-99.99,,,0.00,0.000000,,2013-02-15 02:10:00,
2013-02-14 21:32:00,42.0,27.0,-100.00,North,-999,-999.0,-999.0,54,-99.99,,,0.00,0.000000,,2013-02-15 02:32:00,
2013-02-14 21:42:00,42.0,27.0,-100.00,North,-999,-999.0,-999.0,54,-99.99,,,0.00,0.000000,,2013-02-15 02:42:00,
2013-02-14 21:52:00,42.0,27.0,-100.00,North,-999,-999.0,-999.0,54,-99.99,,,0.00,0.000000,,2013-02-15 02:52:00,
2013-02-14 22:02:00,42.0,27.0,-100.00,North,-999,-999.0,-999.0,54,-99.99,,,0.00,0.000000,,2013-02-15 03:02:00,
2013-02-14 22:10:00,40.0,26.0,-100.00,North,-999,-999.0,-999.0,57,0.00,,,0.00,0.000000,,2013-02-15 03:10:00,
2013-02-14 22:32:00,40.0,26.0,-100.00,North,-999,-999.0,-999.0,57,0.00,,,0.00,0.000000,,2013-02-15 03:32:00,
2013-02-14 22:42:00,40.0,26.0,-100.00,North,-999,-999.0,-999.0,57,0.00,,,0.00,0.000000,,2013-02-15 03:42:00,
2013-02-14 22:52:00,40.0,26.0,-100.00,North,-999,-999.0,-999.0,57,0.00,,,0.00,0.000000,,2013-02-15 03:52:00,
2013-02-14 23:02:00,40.0,26.0,-100.00,North,-999,-999.0,-999.0,57,0.00,,,0.00,0.000000,,2013-02-15 04:02:00,
2013-02-14 23:10:00,37.0,26.0,-100.00,North,-999,-999.0,-999.0,63,0.00,,,0.00,0.000000,,2013-02-15 04:10:00,
2013-02-14 23:32:00,37.0,26.0,-100.00,North,-999,-999.0,-999.0,63,0.00,,,0.00,0.000000,,2013-02-15 04:32:00,
2013-02-14 23:42:00,37.0,26.0,-100.00,North,-999,-999.0,-999.0,63,0.00,,,0.00,0.000000,,2013-02-15 04:42:00,
2013-02-14 23:52:00,37.0,26.0,-100.00,North,-999,-999.0,-999.0,63,0.00,,,0.00,0.000000,,2013-02-15 04:52:00,